Content
SEND FEEDBACK

Daily
Averages
Monthly
Summary
United States of America

HAZELWOOD, MISSOURI


Home > North America > United States > Missouri
Elevation: 174 meters     Latitude: 38 45N     Longitude: 090 22W

WEATHER
 
SELECT A DAY
Number of Records: 201,316;   Date Range: 1/1/95 - 12/21/14
 
SHARE

PRINT THIS DATA

[ ← Previous Day ]
WEATHER ALMANAC - 4 APRIL, 2013
[ Next Day → ]
[ °F ]   °C
Weather ElementAverageHighLow
Temperature6.7 °C15.6 °C (3:54 pm)-2.8 °C (5:54 am)
Dewpoint-4.1 °C-1.1 °C (7:54 pm)-7.2 °C (10:54 am)
Humidity53.6 %89 % (5:54 am)20 % (4:54 pm)
Barometer1020.7 hPa1024.4 hPa (1:54 am)1017.9 hPa (3:54 pm)
Wind Speed3.7 km/h14.8 km/h (1:54 pm)
Weather ElementAverage
Visibility16.1 km
Wind DirectionENE (79.1 °)

Weather ElementTotal
Precipitation---
Heating Degree Days11.9 (Base 18.3)
Averaged from 23 records on 4 April, 2013
WEATHER CONDITIONS BREAKOUT
WIND DIRECTION BREAKOUT
WEATHER BY HOUR - 4 APRIL, 2013
[ °F ]   °C
Local TimeTemperatureDewpointHumidityBarometerVisibilityWind DirectionWind SpeedGust SpeedPrecipitationEventsConditions
1:54 AM0 °C-2.8 °C82 %1024.4 hPa16.1 kmWSW (250°)5.6 km/hClear
2:54 AM-0.6 °C-3.3 °C82 %1023.4 hPa16.1 kmCalmClear
3:54 AM-1.1 °C-3.3 °C85 %1023 hPa16.1 kmCalmClear
4:54 AM-1.7 °C-3.9 °C85 %1022.7 hPa16.1 kmCalmClear
5:54 AM-2.8 °C-4.4 °C89 %1022.7 hPa16.1 kmCalmClear
6:54 AM-2.8 °C-5.6 °C81 %1023.4 hPa16.1 kmCalmScattered Clouds
7:54 AM0.6 °C-2.2 °C82 %1023.4 hPa16.1 kmCalmClear
8:54 AM5.6 °C-2.2 °C58 %1022.7 hPa16.1 kmCalmScattered Clouds
9:54 AM8.3 °C-3.3 °C44 %1021.7 hPa16.1 kmCalmPartly Cloudy
10:54 AM10.6 °C-7.2 °C28 %1021.3 hPa16.1 kmNE (40°)9.3 km/hPartly Cloudy
11:54 AM11.7 °C-6.1 °C29 %1021 hPa16.1 kmCalmPartly Cloudy
12:54 PM12.8 °C-6.7 °C25 %1020 hPa16.1 kmCalmPartly Cloudy
1:54 PM13.9 °C-5.6 °C26 %1019.3 hPa16.1 kmNNE (30°)14.8 km/hPartly Cloudy
2:54 PM14.4 °C-5.6 °C25 %1019 hPa16.1 kmVariable9.3 km/hScattered Clouds
3:54 PM15.6 °C-6.1 °C22 %1017.9 hPa16.1 kmNNW (340°)13 km/hScattered Clouds
4:54 PM15.6 °C-7.2 °C20 %1017.9 hPa16.1 kmNW (310°)9.3 km/hScattered Clouds
5:54 PM15 °C-6.1 °C23 %1017.9 hPa16.1 kmVariable5.6 km/hMostly Cloudy
6:54 PM13.9 °C-5 °C27 %1017.9 hPa16.1 kmNNW (340°)7.4 km/hPartly Cloudy
7:54 PM8.3 °C-1.1 °C52 %1017.9 hPa16.1 kmCalmClear
8:54 PM6.1 °C-1.7 °C58 %1018.3 hPa16.1 kmCalmClear
9:54 PM3.9 °C-1.1 °C70 %1018.6 hPa16.1 kmWSW (250°)5.6 km/hClear
10:54 PM3.9 °C-1.7 °C67 %1018.6 hPa16.1 kmWest (260°)5.6 km/hClear
11:54 PM2.2 °C-2.2 °C73 %1018.6 hPa16.1 kmCalmClear
Hourly data recorded from KSUS, located 0 kilometers away from Hazelwood, Missouri







STORIES FROM OUR PARTNERS